Stations météo

réclame
Mon MeteoGroup
Rimini, Italie (16149): Température de l'air & dewpoint: 17.10.2018 08:00:00 - 23.10.2018 08:00:00 (CEST)Rimini, Italie (16149): Vitesse du vent: 17.10.2018 08:00:00 - 23.10.2018 08:00:00 (CEST)Rimini, Italie (16149): Direction du vent: 17.10.2018 08:00:00 - 23.10.2018 08:00:00 (CEST)Rimini, Italie (16149): reduced air pressure: 17.10.2018 08:00:00 - 23.10.2018 08:00:00 (CEST)Rimini, Italie (16149): visibility: 17.10.2018 08:00:00 - 23.10.2018 08:00:00 (CEST)Rimini, Italie (16149): Quantités de précipitations: 17.10.2018 08:00:00 - 23.10.2018 08:00:00 (CEST)
Date & Time tt [°C] td [°C] ff [km/h] ff [knt] dd ppp [hPa] vv [km] rr [mm]
23.10.2018 08:00:00 12,2 9,1 15 8 W 1023,2 8 -
23.10.2018 07:00:00 12,0 9,0 13 7 WNW - 10 -
23.10.2018 06:00:00 13,0 9,0 9 5 WNW - 10 -
23.10.2018 05:00:00 13,4 9,1 13 7 NNW 1022,3 10 0,0
23.10.2018 04:00:00 14,0 9,0 11 6 NW - 10 -
23.10.2018 03:00:00 16,0 10,0 18 10 NNE - 10 -
23.10.2018 02:00:00 16,2 9,4 22 12 NNE 1022,6 10 -
23.10.2018 01:00:00 16,0 10,0 21 11 NNE - 10 -
23.10.2018 00:00:00 16,0 9,0 21 11 NNE - 10 -
22.10.2018 23:00:00 15,9 8,4 18 10 NNE 1022,0 10 0,0
22.10.2018 22:00:00 16,0 9,0 22 12 NNE - 10 -
22.10.2018 21:00:00 16,0 9,0 15 8 NE - 10 -
22.10.2018 20:00:00 15,9 8,8 15 8 NNE 1020,7 10 -
22.10.2018 19:00:00 16,0 9,0 16 9 NNE - 10 -
22.10.2018 18:00:00 16,0 8,0 18 10 N - 10 -
22.10.2018 17:00:00 15,8 7,6 11 6 NNW 1019,3 10 0,0
22.10.2018 16:00:00 16,0 8,0 13 7 N - 10 -
22.10.2018 15:00:00 15,0 8,0 13 7 NNE - 10 -
22.10.2018 14:00:00 15,2 7,4 15 8 N 1020,3 10 -
22.10.2018 13:00:00 15,0 8,0 16 9 N - 10 -
22.10.2018 12:00:00 16,0 8,0 18 10 N - 10 -
22.10.2018 11:00:00 15,5 7,4 18 10 NNE 1020,9 10 0,0
22.10.2018 10:00:00 15,0 7,0 21 11 N - 10 -
22.10.2018 09:00:00 15,0 7,0 22 12 NNE - 10 -
22.10.2018 08:00:00 13,9 7,0 22 12 NNE 1019,8 10 -
22.10.2018 07:00:00 14,0 7,0 24 13 N - 10 -
22.10.2018 06:00:00 14,0 7,0 24 13 N - 10 -
22.10.2018 05:00:00 14,2 6,1 18 10 NNE 1019,4 10 0,0
22.10.2018 04:00:00 14,0 6,0 22 12 NNE - 10 -
22.10.2018 03:00:00 14,0 7,0 26 14 NNE - 10 -
22.10.2018 02:00:00 14,4 6,5 21 11 NNE 1020,4 10 -
22.10.2018 01:00:00 14,0 6,0 26 14 NE - 10 -
22.10.2018 00:00:00 14,0 6,0 28 15 NE - 10 -
21.10.2018 23:00:00 14,4 5,2 35 19 NE 1021,3 10 0,0
21.10.2018 22:00:00 12,0 8,0 8 4 - - 10 -
21.10.2018 21:00:00 11,0 9,0 13 7 W - 8 -
21.10.2018 20:00:00 10,8 8,7 9 5 S 1022,0 5 -
21.10.2018 19:00:00 13,0 8,0 18 10 NE - 4,0 -
21.10.2018 18:00:00 13,0 9,0 28 15 ENE - 4,0 -
21.10.2018 17:00:00 13,2 10,6 37 20 ENE 1020,1 5 0,0
21.10.2018 16:00:00 16,0 14,0 24 13 E - 5 -
21.10.2018 15:00:00 18,0 14,0 8 4 WNW - 4,0 -
21.10.2018 14:00:00 17,4 14,0 9 5 NNW 1019,0 4,0 -
21.10.2018 13:00:00 18,0 13,0 5 3 WNW - 4,0 -
21.10.2018 12:00:00 - - - - - - - -
21.10.2018 11:00:00 16,5 12,7 9 5 W 1020,6 5 0,0
21.10.2018 10:00:00 13,0 13,0 4 2 - - 4,0 -
21.10.2018 09:00:00 11,0 11,0 2 1 - - 4,0 -
21.10.2018 08:00:00 9,8 9,5 4 2 - 1020,2 2,0 -
21.10.2018 07:00:00 10,0 10,0 4 2 - - 2,2 -
21.10.2018 06:00:00 10,0 10,0 8 4 S - 1,2 -
21.10.2018 05:00:00 11,1 10,9 4 2 S 1020,9 0,3 0,0
21.10.2018 04:00:00 11,0 11,0 8 4 S - 1,3 -
21.10.2018 03:00:00 11,0 11,0 2 1 - - 0,3 -
21.10.2018 02:00:00 11,3 11,0 5 3 S 1022,4 1,0 -
21.10.2018 01:00:00 13,0 12,0 4 2 S - 2,1 -
21.10.2018 00:00:00 12,0 12,0 4 2 S - 0,8 -
20.10.2018 23:00:00 13,1 12,2 2 1 - 1023,2 7 0,0
20.10.2018 22:00:00 14,0 13,0 5 3 S - 6 -
20.10.2018 21:00:00 14,0 13,0 5 3 S - 6 -
20.10.2018 20:00:00 14,7 14,1 4 2 S 1022,6 6 -
20.10.2018 19:00:00 16,0 15,0 4 2 ESE - 6 -
20.10.2018 18:00:00 19,0 15,0 4 2 - - 6 -
20.10.2018 17:00:00 19,2 15,8 9 5 NNE 1022,3 6 0,0
20.10.2018 16:00:00 20,0 16,0 11 6 N - 6 -
20.10.2018 15:00:00 19,0 16,0 13 7 N - 5 -
20.10.2018 14:00:00 20,3 15,7 13 7 N 1023,5 5 -
20.10.2018 13:00:00 20,0 15,0 11 6 N - 5 -
20.10.2018 12:00:00 20,0 14,0 9 5 WNW - 5 -
20.10.2018 11:00:00 18,6 14,1 15 8 WNW 1023,8 4,0 0,0
20.10.2018 10:00:00 17,0 14,0 5 3 WSW - 3,5 -
20.10.2018 09:00:00 13,0 12,0 5 3 SW - 3,0 -
20.10.2018 08:00:00 11,4 11,0 4 2 SSW 1021,8 3,0 -
20.10.2018 07:00:00 11,0 11,0 4 2 S - 1,9 -
20.10.2018 06:00:00 11,0 11,0 4 2 SW - 2,2 -
20.10.2018 05:00:00 11,3 10,9 2 1 S 1021,1 1,4 0,0
20.10.2018 04:00:00 11,0 11,0 2 1 SW - 1,0 -
20.10.2018 03:00:00 12,0 11,0 2 1 - - 4,5 -
20.10.2018 02:00:00 12,2 11,5 2 1 - 1020,8 3,9 -
20.10.2018 01:00:00 13,0 12,0 4 2 SSW - 4,0 -
20.10.2018 00:00:00 14,0 13,0 4 2 S - 4,9 -
19.10.2018 23:00:00 14,4 12,8 4 2 S 1020,0 6 0,0
19.10.2018 22:00:00 15,0 14,0 4 2 SSW - 5 -
19.10.2018 21:00:00 16,0 15,0 5 3 SW - 4,0 -
19.10.2018 20:00:00 16,1 15,3 5 3 S 1019,0 4,0 -
19.10.2018 19:00:00 17,0 16,0 2 1 S - 4,0 -
19.10.2018 18:00:00 19,0 16,0 4 2 - - 5 -
19.10.2018 17:00:00 19,8 16,3 9 5 N 1018,0 5 0,0
19.10.2018 16:00:00 20,0 16,0 15 8 N - 5 -
19.10.2018 15:00:00 20,0 16,0 13 7 N - 7 -
19.10.2018 14:00:00 21,5 16,1 13 7 NNW 1017,9 10 -
19.10.2018 13:00:00 22,0 15,0 13 7 WNW - 8 -
19.10.2018 12:00:00 21,0 15,0 15 8 W - 7 -
19.10.2018 11:00:00 19,4 15,3 16 9 W 1018,9 6 0,0
19.10.2018 10:00:00 18,0 15,0 11 6 WNW - 6 -
19.10.2018 09:00:00 14,0 14,0 4 2 - - 6 -
19.10.2018 08:00:00 13,1 12,6 2 1 - 1017,2 4,0 -
19.10.2018 07:00:00 13,0 12,0 5 3 SW - 2,7 -
19.10.2018 06:00:00 13,0 12,0 5 3 SW - 1,3 -
19.10.2018 05:00:00 13,3 12,8 4 2 SSW 1017,1 2,3 0,0
19.10.2018 04:00:00 13,0 13,0 5 3 SSW - 2,3 -
19.10.2018 03:00:00 13,0 13,0 4 2 SSW - 1,8 -
19.10.2018 02:00:00 13,6 13,1 5 3 S 1017,2 2,1 -
19.10.2018 01:00:00 14,0 14,0 4 2 SSW - 1,7 -
19.10.2018 00:00:00 15,0 14,0 4 2 - - 1,6 -
18.10.2018 23:00:00 14,8 14,4 2 1 - 1016,7 5 0,0
18.10.2018 22:00:00 15,0 15,0 4 2 S - 5 -
18.10.2018 21:00:00 16,0 15,0 4 2 - - 4,0 -
18.10.2018 20:00:00 16,3 15,6 2 1 SSW 1015,7 4,0 -
18.10.2018 19:00:00 17,0 16,0 2 1 S - 4,0 -
18.10.2018 18:00:00 19,0 16,0 5 3 NNE - 7 -
18.10.2018 17:00:00 19,6 15,8 8 4 N 1015,3 7 0,0
18.10.2018 16:00:00 21,0 15,0 11 6 NW - 8 -
18.10.2018 15:00:00 21,0 14,0 15 8 NNW - 10 -
18.10.2018 14:00:00 21,0 15,0 13 7 NNW - 6 -
18.10.2018 13:00:00 21,0 15,0 11 6 WNW - 6 -
18.10.2018 12:00:00 19,0 15,0 13 7 WNW - 4,5 -
18.10.2018 11:00:00 18,4 15,3 15 8 W 1016,9 4,5 0,0
18.10.2018 10:00:00 18,0 15,0 13 7 W - 4,5 -
18.10.2018 09:00:00 16,0 15,0 9 5 WSW - 3,5 -
18.10.2018 08:00:00 14,9 14,2 8 4 WSW 1016,7 2,5 -
18.10.2018 07:00:00 15,0 14,0 9 5 WSW - 2,6 -
18.10.2018 06:00:00 15,0 14,0 11 6 W - 3,2 -
18.10.2018 05:00:00 15,9 14,9 9 5 W 1016,5 3,2 0,0
18.10.2018 04:00:00 16,0 15,0 9 5 W - 3,5 -
18.10.2018 03:00:00 16,0 15,0 9 5 W - 3,5 -
18.10.2018 02:00:00 15,9 15,0 9 5 W 1017,8 4,1 -
18.10.2018 01:00:00 17,0 15,0 9 5 W - 4,4 -
18.10.2018 00:00:00 16,0 15,0 8 4 WSW - 4,7 -
17.10.2018 23:00:00 16,4 15,3 9 5 W 1018,4 4,0 0,0
17.10.2018 22:00:00 16,0 15,0 9 5 W - 4,0 -
17.10.2018 21:00:00 16,0 15,0 9 5 W - 3,5 -
17.10.2018 20:00:00 16,2 15,1 9 5 WSW 1018,1 3,5 -
17.10.2018 19:00:00 16,0 15,0 15 8 W - 2,0 -
17.10.2018 18:00:00 16,0 15,0 11 6 WSW - 2,0 -
17.10.2018 17:00:00 16,0 15,3 13 7 WSW 1017,7 1,5 0,0
17.10.2018 16:00:00 16,0 16,0 13 7 W - 1,5 -
17.10.2018 15:00:00 16,0 16,0 15 8 W - 1,5 -
17.10.2018 14:00:00 16,7 15,4 15 8 W 1018,6 3,0 -
17.10.2018 13:00:00 17,0 15,0 18 10 W - 3,0 -
17.10.2018 12:00:00 17,0 15,0 18 10 W - 3,5 -
17.10.2018 11:00:00 16,8 15,5 16 9 W 1019,3 3,0 0,0
17.10.2018 10:00:00 17,0 16,0 15 8 W - 2,5 -
17.10.2018 09:00:00 16,0 16,0 13 7 W - 2,5 -
17.10.2018 08:00:00 16,2 15,4 13 7 W 1019,0 2,8 -

tt = Température de l'air
td = dewpoint
ff = Vitesse du vent
dd = Direction du vent
ppp = reduced air pressure
vv = visibility
rr = Quantités de précipitations

stations d'obs. à proximité